Weather History for Marianna, FL

Change the Weather History Date:

Friday, April 27, 2012

  Actual Average Record
Temperature  
Mean Temperature 72 °F 70 °F  
Max Temperature 84 °F 83 °F 93 °F (2011)
Min Temperature 59 °F 57 °F 46 °F (2001)
Degree Days  
Heating Degree Days 0    
Month to date heating degree days  
Since 1 July heating degree days  
Cooling Degree Days 6    
Month to date cooling degree days  
Year to date cooling degree days  
Growing Degree Days 22 (Base 50)    
Moisture  
Dew Point 60 °F    
Average Humidity 68    
Maximum Humidity 93    
Minimum Humidity 38    
Precipitation  
Precipitation 0.00 in 0.06 in 1.06 in (1997)
Month to date precipitation 3.55  
Year to date precipitation 19.07  
Sea Level Pressure  
Sea Level Pressure 30.07 in    
Wind  
Wind Speed 5 mph (SW)    
Max Wind Speed 12 mph    
Max Gust Speed 17 mph    
Visibility 10 miles    
Events      
T = Trace of Precipitation, MM = Missing Value Source: NWS Daily Summary

Daily Weather History Graph

Daily Weather History Graph

Search for Another Location

Airport:

Trip Planner

Search our weather history database for the weather conditions in past years. The results will help you decide how hot, cold, wet, or windy it might be!

Date:

Astronomy

Apr. 27, 2012 Rise Set
Actual Time 5:59 AM CDT 7:17 PM CDT
Civil Twilight 5:34 AM CDT 7:42 PM CDT
Nautical Twilight 5:04 AM CDT 8:12 PM CDT
Astronomical Twilight 4:32 AM CDT 8:44 PM CDT
Moon 10:42 AM CDT No Moon Set
Length of Visible Light 14h 08m
Length of Day
13h 17m
Waxing Crescent, 33% of the Moon is Illuminated
Apr 27
Waxing Crescent
Apr 29
First Quarter
May 5
Full
May 12
Last Quarter
May 20
New

Hourly Weather History & Observations

Time (CDT) Temp. Heat Index Dew Point Humidity Pressure Visibility Wind Dir Wind Speed Gust Speed Precip Events Conditions
12:53 AM 64.0 °F - 62.1 °F 93% 30.03 in 10.0 mi South 6.9 mph - N/A   Clear
1:53 AM 63.0 °F - 61.0 °F 93% 30.03 in 9.0 mi South 4.6 mph - N/A   Clear
2:53 AM 62.1 °F - 60.1 °F 93% 30.04 in 8.0 mi Calm Calm - N/A   Clear
3:53 AM 62.1 °F - 60.1 °F 93% 30.05 in 9.0 mi Calm Calm - N/A   Clear
4:53 AM 60.1 °F - 57.0 °F 90% 30.05 in 10.0 mi Calm Calm - N/A   Clear
5:53 AM 59.0 °F - 55.9 °F 90% 30.06 in 10.0 mi Calm Calm - N/A   Clear
6:53 AM 61.0 °F - 59.0 °F 93% 30.09 in 10.0 mi Calm Calm - N/A   Clear
7:53 AM 66.9 °F - 63.0 °F 87% 30.10 in 10.0 mi Calm Calm - N/A   Clear
8:53 AM 72.0 °F - 64.0 °F 76% 30.11 in 10.0 mi WSW 5.8 mph - N/A   Scattered Clouds
9:12 AM 73.4 °F - 62.6 °F 69% 30.11 in 10.0 mi West 8.1 mph - N/A   Mostly Cloudy
9:53 AM 73.9 °F - 62.1 °F 66% 30.12 in 10.0 mi WSW 6.9 mph - N/A   Mostly Cloudy
10:03 AM 75.2 °F - 62.6 °F 65% 30.12 in 10.0 mi West 6.9 mph - N/A   Scattered Clouds
10:53 AM 78.1 °F - 61.0 °F 56% 30.12 in 10.0 mi SW 8.1 mph - N/A   Scattered Clouds
11:53 AM 79.0 °F - 60.1 °F 52% 30.10 in 10.0 mi WSW 4.6 mph - N/A   Scattered Clouds
12:53 PM 82.0 °F 82.1 °F 59.0 °F 45% 30.08 in 10.0 mi SW 9.2 mph 17.3 mph N/A   Partly Cloudy
1:53 PM 84.0 °F 83.8 °F 59.0 °F 43% 30.06 in 10.0 mi WSW 11.5 mph - N/A   Clear
2:53 PM 84.9 °F 84.2 °F 57.9 °F 40% 30.04 in 10.0 mi SSW 8.1 mph - N/A   Clear
3:53 PM 84.9 °F 83.9 °F 57.0 °F 38% 30.02 in 10.0 mi Variable 6.9 mph - N/A   Clear
4:53 PM 84.0 °F 83.3 °F 57.0 °F 40% 30.01 in 10.0 mi WSW 10.4 mph - N/A   Clear
5:53 PM 82.0 °F 82.0 °F 57.9 °F 44% 30.02 in 10.0 mi SSW 10.4 mph - N/A   Clear
6:53 PM 78.1 °F - 57.9 °F 50% 30.03 in 10.0 mi SSW 8.1 mph - N/A   Clear
7:53 PM 73.9 °F - 59.0 °F 59% 30.04 in 10.0 mi SW 8.1 mph - N/A   Clear
8:53 PM 71.1 °F - 60.1 °F 68% 30.06 in 10.0 mi SW 5.8 mph - N/A   Clear
9:53 PM 68.0 °F - 60.1 °F 76% 30.07 in 10.0 mi SW 3.5 mph - N/A   Clear
11:53 PM 64.9 °F - 60.1 °F 84% 30.07 in 10.0 mi SSW 3.5 mph - N/A   Clear